TimeCST,TemperatureF,Dew PointF,Humidity,Sea Level PressureIn,VisibilityMPH,Wind Direction,Wind SpeedMPH,Gust SpeedMPH,PrecipitationIn,Events,Conditions,WindDirDegrees,DateUTC
12:52 AM,21.0,5.0,50,30.37,10.0,ENE,5.8,-,N/A,,Clear,60,2013-02-20 06:52:00
1:52 AM,21.0,5.0,50,30.36,10.0,ENE,9.2,-,N/A,,Clear,60,2013-02-20 07:52:00
2:52 AM,19.9,1.9,46,30.34,10.0,ENE,11.5,-,N/A,,Partly Cloudy,60,2013-02-20 08:52:00
3:52 AM,19.0,3.0,50,30.31,10.0,ENE,11.5,-,N/A,,Clear,60,2013-02-20 09:52:00
4:52 AM,18.0,3.9,54,30.33,10.0,ENE,9.2,-,N/A,,Scattered Clouds,60,2013-02-20 10:52:00
5:52 AM,18.0,3.0,52,30.32,10.0,ENE,13.8,-,N/A,,Scattered Clouds,70,2013-02-20 11:52:00
6:52 AM,18.0,3.0,52,30.35,10.0,ENE,10.4,18.4,N/A,,Clear,70,2013-02-20 12:52:00
7:52 AM,18.0,3.0,52,30.35,10.0,East,15.0,-,N/A,,Mostly Cloudy,90,2013-02-20 13:52:00
8:52 AM,19.0,3.9,52,30.35,10.0,East,9.2,-,N/A,,Overcast,100,2013-02-20 14:52:00
9:52 AM,19.9,5.0,52,30.39,10.0,ESE,6.9,-,N/A,,Overcast,110,2013-02-20 15:52:00
10:52 AM,21.2,6.8,54,30.31,10.0,ENE,10.4,-,N/A,,Overcast,70,2013-02-20 16:52:00
11:52 AM,24.8,6.8,46,30.27,10.0,East,11.5,-,N/A,,Overcast,80,2013-02-20 17:52:00
12:36 PM,26.6,6.8,43,30.26,10.0,East,13.8,-,N/A,,Mostly Cloudy,100,2013-02-20 18:36:00
12:52 PM,27.0,6.1,41,30.28,10.0,East,12.7,-,N/A,,Overcast,90,2013-02-20 18:52:00
1:34 PM,26.6,5.0,40,30.22,10.0,East,12.7,19.6,N/A,,Overcast,90,2013-02-20 19:34:00
1:52 PM,27.0,6.1,41,30.25,10.0,East,13.8,-,N/A,,Overcast,90,2013-02-20 19:52:00
2:51 PM,26.1,15.1,63,30.24,1.8,East,11.5,-,0.00,Snow,Light Snow,100,2013-02-20 20:51:00
3:03 PM,24.8,17.6,74,30.19,2.0,East,11.5,-,0.00,Snow,Light Snow,80,2013-02-20 21:03:00
3:10 PM,24.8,17.6,74,30.19,1.8,ENE,13.8,-,0.00,Snow,Light Snow,70,2013-02-20 21:10:00
3:29 PM,24.8,17.6,74,30.19,2.5,East,9.2,-,0.00,Snow,Light Snow,80,2013-02-20 21:29:00
3:50 PM,24.8,17.6,74,30.17,4.0,ENE,12.7,-,0.00,Snow,Light Snow,70,2013-02-20 21:50:00
3:52 PM,24.1,18.0,77,30.22,4.0,ENE,12.7,-,0.00,Snow,Light Snow,70,2013-02-20 21:52:00
4:52 PM,24.8,15.8,69,30.15,10.0,East,11.5,-,N/A,,Overcast,80,2013-02-20 22:52:00
5:52 PM,26.1,16.0,66,30.18,10.0,East,16.1,-,N/A,,Overcast,80,2013-02-20 23:52:00
6:52 PM,26.1,10.0,51,30.17,10.0,East,13.8,-,N/A,,Overcast,80,2013-02-21 00:52:00
7:52 PM,26.1,8.1,47,30.17,10.0,East,13.8,21.9,N/A,,Overcast,90,2013-02-21 01:52:00
8:52 PM,26.6,8.6,47,30.13,10.0,East,12.7,20.7,N/A,,Overcast,90,2013-02-21 02:52:00
9:52 PM,26.1,9.0,49,30.20,10.0,East,9.2,-,N/A,,Overcast,80,2013-02-21 03:52:00
10:52 PM,26.1,10.0,51,30.19,10.0,ENE,11.5,-,N/A,,Overcast,60,2013-02-21 04:52:00
11:52 PM,26.1,10.9,53,30.17,10.0,ENE,12.7,-,N/A,,Overcast,70,2013-02-21 05:52:00